| time (UTC) | temp F | wind direction | speed MPH | gust MPH | rain 1hr in | rain 24hr in | rain mn in | humidity % | barometer mb |
| 20260507124555 | 54 | 36 | 3.0 | 4.0 | 0.00 | 0.00 | 0.00 | 90 | 1015.2 |
| 20260507123043 | 54 | 53 | 1.0 | 3.0 | 0.00 | 0.00 | 0.00 | 90 | 1015.2 |
| 20260507121553 | 54 | 57 | 1.0 | 3.0 | 0.00 | 0.00 | 0.00 | 90 | 1015.2 |
| 20260507120052 | 54 | 51 | 2.0 | 4.0 | 0.00 | 0.00 | 0.00 | 89 | 1015.2 |
| 20260507114546 | 54 | 56 | 2.0 | 4.0 | 0.00 | 0.00 | 0.00 | 89 | 1015.2 |
| 20260507113049 | 54 | 61 | 1.0 | 4.0 | 0.00 | 0.00 | 0.00 | 89 | 1015.2 |
| 20260507111550 | 54 | 41 | 1.0 | 3.0 | 0.00 | 0.00 | 0.00 | 89 | 1015.2 |
| 20260507110059 | 54 | 61 | 1.0 | 3.0 | 0.00 | 0.00 | 0.00 | 89 | 1015.3 |
| 20260507104600 | 54 | 49 | 1.0 | 3.0 | 0.00 | 0.00 | 0.00 | 89 | 1015.3 |
| 20260507103115 | 54 | 51 | 2.0 | 5.0 | 0.00 | 0.00 | 0.00 | 89 | 1015.4 |
| 20260507101547 | 55 | 57 | 2.0 | 5.0 | 0.00 | 0.00 | 0.00 | 88 | 1015.4 |
| 20260507100103 | 55 | 55 | 2.0 | 4.0 | 0.00 | 0.00 | 0.00 | 88 | 1015.4 |
| 20260507094551 | 55 | 46 | 2.0 | 6.0 | 0.00 | 0.00 | 0.00 | 88 | 1015.6 |
| 20260507093050 | 55 | 32 | 3.0 | 5.0 | 0.00 | 0.00 | 0.00 | 88 | 1015.7 |
| 20260507091549 | 56 | 42 | 2.0 | 4.0 | 0.00 | 0.00 | 0.00 | 87 | 1015.8 |
| 20260507090055 | 56 | 40 | 3.0 | 5.0 | 0.00 | 0.00 | 0.00 | 87 | 1015.9 |
| 20260507084603 | 56 | 34 | 2.0 | 4.0 | 0.00 | 0.00 | 0.00 | 87 | 1016.1 |
| 20260507083051 | 57 | 59 | 2.0 | 4.0 | 0.00 | 0.00 | 0.00 | 87 | 1016.1 |
| 20260507081546 | 58 | 0 | 1.0 | 3.0 | 0.00 | 0.00 | 0.00 | 87 | 1016.3 |
| 20260507080054 | 58 | 303 | 1.0 | 3.0 | 0.00 | 0.00 | 0.00 | 88 | 1016.4 |
| 20260507074551 | 58 | 0 | 1.0 | 3.0 | 0.00 | 0.00 | 0.00 | 88 | 1016.4 |
| 20260507073052 | 59 | 0 | 0.0 | 3.0 | 0.00 | 0.00 | 0.00 | 88 | 1016.4 |
| 20260507071557 | 59 | 0 | 0.0 | 2.0 | 0.00 | 0.00 | 0.00 | 88 | 1016.5 |
| 20260507070105 | 59 | 0 | 0.0 | 3.0 | 0.00 | 0.00 | 0.00 | 88 | 1016.7 |
| 20260507064554 | 59 | 0 | 0.0 | 2.0 | 0.00 | 0.00 | 0.00 | 87 | 1016.7 |
| 20260507063048 | 59 | 147 | 0.0 | 2.0 | 0.00 | 0.00 | 0.00 | 87 | 1016.8 |
| 20260507061551 | 59 | 0 | 1.0 | 4.0 | 0.00 | 0.00 | 0.00 | 85 | 1016.7 |
| 20260507060053 | 59 | 178 | 0.0 | 2.0 | 0.00 | 0.00 | 0.00 | 84 | 1016.7 |
| 20260507054609 | 60 | 252 | 0.0 | 2.0 | 0.00 | 0.00 | 0.00 | 84 | 1016.8 |
| 20260507053102 | 60 | 305 | 2.0 | 5.0 | 0.00 | 0.00 | 0.00 | 83 | 1016.8 |
| 20260507051555 | 60 | 302 | 1.0 | 4.0 | 0.00 | 0.00 | 0.00 | 83 | 1016.8 |
| 20260507050056 | 60 | 297 | 2.0 | 5.0 | 0.00 | 0.00 | 0.00 | 83 | 1016.6 |
| 20260507044555 | 60 | 307 | 3.0 | 5.0 | 0.00 | 0.00 | 0.00 | 82 | 1016.7 |
| 20260507043049 | 60 | 311 | 2.0 | 7.0 | 0.00 | 0.00 | 0.00 | 81 | 1016.5 |
| 20260507041559 | 61 | 301 | 5.0 | 10.0 | 0.00 | 0.00 | 0.00 | 81 | 1016.6 |
| 20260507040051 | 61 | 307 | 4.0 | 9.0 | 0.00 | 0.00 | 0.00 | 81 | 1016.4 |
| 20260507034544 | 61 | 295 | 3.0 | 8.0 | 0.00 | 0.00 | 0.00 | 83 | 1016.3 |
| 20260507033043 | 61 | 303 | 4.0 | 8.0 | 0.00 | 0.00 | 0.00 | 83 | 1016.0 |
| 20260507031543 | 62 | 298 | 4.0 | 10.0 | 0.00 | 0.00 | 0.00 | 82 | 1015.9 |
| 20260507030051 | 62 | 319 | 6.0 | 10.0 | 0.00 | 0.00 | 0.00 | 81 | 1015.8 |
| 20260507024552 | 62 | 304 | 7.0 | 11.0 | 0.00 | 0.00 | 0.00 | 79 | 1015.7 |
| 20260507023045 | 63 | 307 | 5.0 | 11.0 | 0.00 | 0.00 | 0.00 | 77 | 1015.7 |
| 20260507021554 | 64 | 281 | 4.0 | 11.0 | 0.00 | 0.00 | 0.00 | 75 | 1015.5 |
| 20260507020105 | 64 | 296 | 6.0 | 13.0 | 0.00 | 0.00 | 0.00 | 72 | 1015.5 |
| 20260507014616 | 64 | 309 | 10.0 | 13.0 | 0.00 | 0.00 | 0.00 | 72 | 1015.4 |
| 20260507013051 | 65 | 306 | 6.0 | 14.0 | 0.00 | 0.00 | 0.00 | 71 | 1015.3 |
| 20260507011554 | 65 | 302 | 6.0 | 14.0 | 0.00 | 0.00 | 0.00 | 70 | 1015.5 |
| 20260507010049 | 66 | 294 | 5.0 | 14.0 | 0.00 | 0.00 | 0.00 | 70 | 1015.3 |
| 20260507004550 | 66 | 319 | 6.0 | 13.0 | 0.00 | 0.00 | 0.00 | 69 | 1015.3 |
| 20260507003050 | 66 | 253 | 6.0 | 14.0 | 0.00 | 0.00 | 0.00 | 69 | 1015.3 |
| 20260507001600 | 66 | 290 | 8.0 | 14.0 | 0.00 | 0.00 | 0.00 | 69 | 1015.1 |
| 20260507000111 | 66 | 306 | 8.0 | 15.0 | 0.00 | 0.00 | 0.00 | 68 | 1015.1 |
| 20260506234605 | 66 | 287 | 9.0 | 16.0 | 0.00 | 0.00 | 0.00 | 67 | 1015.1 |
| 20260506233050 | 67 | 311 | 9.0 | 16.0 | 0.00 | 0.00 | 0.00 | 67 | 1015.1 |
| 20260506231551 | 67 | 294 | 8.0 | 15.0 | 0.00 | 0.00 | 0.00 | 67 | 1015.1 |
| 20260506230101 | 67 | 312 | 5.0 | 16.0 | 0.00 | 0.00 | 0.00 | 67 | 1015.1 |
| 20260506224552 | 67 | 269 | 8.0 | 17.0 | 0.00 | 0.00 | 0.00 | 69 | 1015.2 |
| 20260506223050 | 66 | 302 | 5.0 | 13.0 | 0.00 | 0.00 | 0.00 | 69 | 1015.4 |
| 20260506221556 | 66 | 219 | 10.0 | 18.0 | 0.00 | 0.00 | 0.00 | 69 | 1015.4 |
| 20260506220049 | 66 | 277 | 7.0 | 15.0 | 0.00 | 0.00 | 0.00 | 69 | 1015.6 |
| 20260506214548 | 66 | 281 | 6.0 | 15.0 | 0.00 | 0.00 | 0.00 | 68 | 1015.7 |
| 20260506213055 | 65 | 265 | 10.0 | 16.0 | 0.00 | 0.00 | 0.00 | 70 | 1015.8 |
| 20260506211553 | 66 | 286 | 8.0 | 19.0 | 0.00 | 0.00 | 0.00 | 69 | 1016.1 |
| 20260506210050 | 66 | 251 | 7.0 | 15.0 | 0.00 | 0.00 | 0.00 | 68 | 1015.9 |
| 20260506204556 | 67 | 248 | 6.0 | 16.0 | 0.00 | 0.00 | 0.00 | 67 | 1016.0 |
| 20260506203053 | 66 | 252 | 5.0 | 18.0 | 0.00 | 0.00 | 0.00 | 67 | 1016.1 |
| 20260506201549 | 65 | 239 | 9.0 | 17.0 | 0.00 | 0.00 | 0.00 | 68 | 1016.2 |
| 20260506200050 | 66 | 256 | 7.0 | 16.0 | 0.00 | 0.00 | 0.00 | 68 | 1016.3 |
| 20260506194552 | 65 | 242 | 9.0 | 16.0 | 0.00 | 0.00 | 0.00 | 68 | 1016.4 |
| 20260506193053 | 66 | 250 | 9.0 | 18.0 | 0.00 | 0.00 | 0.00 | 68 | 1016.6 |
| 20260506191558 | 66 | 230 | 9.0 | 17.0 | 0.00 | 0.00 | 0.00 | 66 | 1016.5 |
| 20260506190055 | 66 | 311 | 6.0 | 13.0 | 0.00 | 0.00 | 0.00 | 67 | 1016.6 |
| 20260506184551 | 66 | 291 | 7.0 | 12.0 | 0.00 | 0.00 | 0.00 | 66 | 1016.6 |
| 20260506183101 | 67 | 289 | 3.0 | 11.0 | 0.00 | 0.00 | 0.00 | 62 | 1016.8 |
| 20260506181602 | 67 | 281 | 3.0 | 12.0 | 0.00 | 0.00 | 0.00 | 59 | 1017.0 |
| 20260506180054 | 65 | 317 | 6.0 | 14.0 | 0.00 | 0.00 | 0.00 | 62 | 1017.0 |
| 20260506174549 | 64 | 349 | 4.0 | 13.0 | 0.00 | 0.00 | 0.00 | 65 | 1017.3 |
| 20260506173116 | 64 | 360 | 5.0 | 11.0 | 0.00 | 0.00 | 0.00 | 62 | 1017.3 |
| 20260506171557 | 63 | 246 | 3.0 | 9.0 | 0.00 | 0.00 | 0.00 | 65 | 1017.4 |
| 20260506170103 | 63 | 257 | 4.0 | 11.0 | 0.00 | 0.00 | 0.00 | 65 | 1017.3 |
| 20260506164547 | 62 | 292 | 5.0 | 13.0 | 0.00 | 0.00 | 0.00 | 68 | 1017.4 |
| 20260506163056 | 61 | 252 | 5.0 | 9.0 | 0.00 | 0.00 | 0.00 | 68 | 1017.3 |
| 20260506161550 | 61 | 288 | 3.0 | 9.0 | 0.00 | 0.00 | 0.00 | 70 | 1017.3 |
| 20260506160049 | 61 | 311 | 5.0 | 9.0 | 0.00 | 0.00 | 0.00 | 71 | 1017.4 |
| 20260506154606 | 61 | 297 | 4.0 | 9.0 | 0.00 | 0.00 | 0.00 | 70 | 1017.4 |
| 20260506153052 | 61 | 313 | 2.0 | 5.0 | 0.00 | 0.00 | 0.00 | 70 | 1017.5 |
| 20260506151551 | 62 | 94 | 1.0 | 4.0 | 0.00 | 0.00 | 0.00 | 70 | 1017.5 |
| 20260506150047 | 61 | 65 | 1.0 | 4.0 | 0.00 | 0.00 | 0.00 | 73 | 1017.5 |
| 20260506144553 | 59 | 69 | 1.0 | 4.0 | 0.00 | 0.00 | 0.00 | 76 | 1017.5 |
| 20260506143048 | 57 | 65 | 2.0 | 5.0 | 0.00 | 0.00 | 0.00 | 79 | 1017.5 |
| 20260506141555 | 56 | 50 | 2.0 | 4.0 | 0.00 | 0.00 | 0.00 | 82 | 1017.5 |
| 20260506140050 | 54 | 45 | 3.0 | 6.0 | 0.00 | 0.00 | 0.00 | 85 | 1017.4 |
| 20260506134550 | 52 | 54 | 3.0 | 5.0 | 0.00 | 0.06 | 0.00 | 87 | 1017.3 |
| 20260506133109 | 52 | 57 | 2.0 | 5.0 | 0.00 | 0.06 | 0.00 | 86 | 1017.1 |
| 20260506131553 | 52 | 57 | 4.0 | 6.0 | 0.00 | 0.06 | 0.00 | 86 | 1017.0 |